Weather History for KCQW - August, 2014

Change the Weather History Date:

Sunday, August 31, 2014

  Actual Average (KFLO) Record (KFLO)
Temperature  
Mean Temperature 82 °F 78 °F  
Max Temperature 95 °F 88 °F 100 °F (1993)
Min Temperature 68 °F 69 °F 56 °F (1976)
Degree Days  
Heating Degree Days 0 0  
Month to date heating degree days 0  
Since 1 June heating degree days 1  
Since 1 July heating degree days 0  
Cooling Degree Days 16 13  
Month to date cooling degree days 464  
Year to date cooling degree days 1670  
Since 1 June cooling degree days 1363  
Growing Degree Days 32 (Base 50)    
Moisture  
Dew Point 70 °F    
Average Humidity 76    
Maximum Humidity 100    
Minimum Humidity 36    
Precipitation  
Precipitation 0.00 in 0.15 in 3.61 in (1952)
Month to date precipitation 5.24  
Year to date precipitation 30.48  
Sea Level Pressure  
Sea Level Pressure 30.13 in    
Wind  
Wind Speed 0 mph (SSE)    
Max Wind Speed 8 mph    
Max Gust Speed -    
Visibility 8 miles    
Events Fog    
T = Trace of Precipitation, MM = Missing Value Source: NWS Daily Summary

Daily Weather History Graph

Daily Weather History Graph

Search for Another Location

Airport or City:

Trip Planner

Search our weather history database for the weather conditions in past years. The results will help you decide how hot, cold, wet, or windy it might be!

Date:

Astronomy

Aug. 31, 2014 Rise Set
Actual Time 6:52 AM EDT 7:47 PM EDT
Civil Twilight 6:26 AM EDT 8:13 PM EDT
Nautical Twilight 5:55 AM EDT 8:43 PM EDT
Astronomical Twilight 5:24 AM EDT 9:15 PM EDT
Moon 12:22 PM EDT (8/31) 11:16 PM EDT (8/31)
Length of Visible Light 13h 47m
Length of Day
12h 55m
Waxing Crescent, 32% of the Moon is Illuminated
Aug 31
Waxing Crescent
Sep 2
First Quarter
Sep 8
Full
Sep 15
Last Quarter
Sep 24
New

Hourly Weather History & Observations

Time (EDT) Temp. Heat Index Dew Point Humidity Pressure Visibility Wind Dir Wind Speed Gust Speed Precip Events Conditions
12:15 AM 73.4 °F - 71.6 °F 94% 30.16 in 10.0 mi Calm Calm - N/A   Clear
12:35 AM 73.4 °F - 71.6 °F 94% 30.16 in 10.0 mi Calm Calm - N/A   Clear
12:55 AM 73.4 °F - 71.6 °F 94% 30.16 in 10.0 mi Calm Calm - N/A   Clear
1:15 AM 71.6 °F - 71.6 °F 100% 30.17 in 10.0 mi Calm Calm - N/A   Clear
1:35 AM 71.6 °F - 71.6 °F 100% 30.16 in 10.0 mi Calm Calm - N/A   Clear
1:55 AM 71.6 °F - 71.6 °F 100% 30.16 in 10.0 mi Calm Calm - N/A   Clear
2:15 AM 71.6 °F - 69.8 °F 94% 30.16 in 10.0 mi Calm Calm - N/A   Clear
2:35 AM 71.6 °F - 71.6 °F 100% 30.16 in 10.0 mi Calm Calm - N/A   Clear
2:55 AM 69.8 °F - 68.0 °F 94% 30.15 in 10.0 mi Calm Calm - N/A   Clear
3:15 AM 69.8 °F - 69.8 °F 100% 30.16 in 10.0 mi Calm Calm - N/A   Clear
3:35 AM 69.8 °F - 68.0 °F 94% 30.16 in 9.0 mi Calm Calm - N/A   Clear
3:55 AM 69.8 °F - 69.8 °F 100% 30.15 in 0.5 mi Calm Calm - N/A Fog Fog
4:15 AM 68.0 °F - 68.0 °F 100% 30.15 in 0.5 mi Calm Calm - N/A Fog Fog
4:35 AM 68.0 °F - 68.0 °F 100% 30.15 in 0.5 mi Calm Calm - N/A Fog Fog
4:55 AM 68.0 °F - 68.0 °F 100% 30.15 in 0.2 mi Calm Calm - N/A Fog Fog
5:15 AM 68.0 °F - 68.0 °F 100% 30.15 in 0.2 mi Calm Calm - N/A Fog Fog
5:35 AM 68.0 °F - 68.0 °F 100% 30.16 in 0.2 mi Calm Calm - N/A Fog Fog
5:55 AM 68.0 °F - 68.0 °F 100% 30.17 in 1.0 mi Calm Calm - N/A   Overcast
6:15 AM 69.8 °F - 69.8 °F 100% 30.17 in 0.2 mi Calm Calm - N/A Fog Fog
6:35 AM 69.8 °F - 69.8 °F 100% 30.17 in 0.2 mi Calm Calm - N/A Fog Fog
6:55 AM 69.8 °F - 69.8 °F 100% 30.18 in 0.2 mi Calm Calm - N/A Fog Fog
7:15 AM 71.6 °F - 71.6 °F 100% 30.19 in 0.2 mi Calm Calm - N/A Fog Fog
7:35 AM 71.6 °F - 71.6 °F 100% 30.20 in 0.2 mi Calm Calm - N/A Fog Fog
7:55 AM 71.6 °F - 71.6 °F 100% 30.20 in 0.2 mi Calm Calm - N/A Fog Fog
8:15 AM 71.6 °F - 71.6 °F 100% 30.19 in 0.2 mi Calm Calm - N/A Fog Fog
8:35 AM 71.6 °F - 71.6 °F 100% 30.19 in 0.2 mi Calm Calm - N/A Fog Fog
8:55 AM 73.4 °F - 73.4 °F 100% 30.18 in 0.5 mi Calm Calm - N/A Fog Fog
9:15 AM 73.4 °F - 73.4 °F 100% 30.18 in 1.0 mi Calm Calm - N/A   Overcast
9:35 AM 75.2 °F - 75.2 °F 100% 30.17 in 10.0 mi Calm Calm - N/A   Scattered Clouds
9:55 AM 78.8 °F - 75.2 °F 89% 30.17 in 10.0 mi Calm Calm - N/A   Clear
10:15 AM 80.6 °F 86.2 °F 75.2 °F 84% 30.17 in 10.0 mi Calm Calm - N/A   Clear
10:35 AM 82.4 °F 88.2 °F 73.4 °F 74% 30.16 in 10.0 mi Calm Calm - N/A   Partly Cloudy
10:55 AM 84.2 °F 90.9 °F 73.4 °F 70% 30.16 in 10.0 mi Calm Calm - N/A   Scattered Clouds
11:15 AM 84.2 °F 90.9 °F 73.4 °F 70% 30.16 in 10.0 mi Calm Calm - N/A   Scattered Clouds
11:35 AM 84.2 °F 89.6 °F 71.6 °F 66% 30.16 in 10.0 mi Calm Calm - N/A   Mostly Cloudy
11:55 AM 84.2 °F 89.6 °F 71.6 °F 66% 30.15 in 10.0 mi Calm Calm - N/A   Mostly Cloudy
12:15 PM 86.0 °F 90.4 °F 69.8 °F 58% 30.15 in 10.0 mi Calm Calm - N/A   Mostly Cloudy
12:35 PM 87.8 °F 92.6 °F 69.8 °F 55% 30.13 in 10.0 mi Calm Calm - N/A   Partly Cloudy
12:55 PM 89.6 °F 93.4 °F 68.0 °F 49% 30.13 in 10.0 mi South 8.1 mph - N/A   Clear
1:15 PM 89.6 °F 93.4 °F 68.0 °F 49% 30.12 in 10.0 mi Calm Calm - N/A   Clear
1:35 PM 91.4 °F 95.4 °F 68.0 °F 46% 30.12 in 10.0 mi Calm Calm - N/A   Partly Cloudy
1:55 PM 91.4 °F 95.4 °F 68.0 °F 46% 30.11 in 10.0 mi Calm Calm - N/A   Scattered Clouds
2:15 PM 91.4 °F 94.0 °F 66.2 °F 43% 30.10 in 10.0 mi Calm Calm - N/A   Mostly Cloudy
2:35 PM 91.4 °F 94.0 °F 66.2 °F 43% 30.09 in 10.0 mi Calm Calm - N/A   Scattered Clouds
2:55 PM 93.2 °F 94.9 °F 64.4 °F 38% 30.09 in 10.0 mi Calm Calm - N/A   Partly Cloudy
3:15 PM 91.4 °F 93.2 °F 64.4 °F 41% 30.08 in 10.0 mi Calm Calm - N/A   Partly Cloudy
3:35 PM 93.2 °F 94.9 °F 64.4 °F 38% 30.07 in 10.0 mi Calm Calm - N/A   Partly Cloudy
3:55 PM 93.2 °F 94.9 °F 64.4 °F 38% 30.06 in 10.0 mi Calm Calm - N/A   Scattered Clouds
4:15 PM 95.0 °F 97.0 °F 64.4 °F 36% 30.05 in 10.0 mi Calm Calm - N/A   Partly Cloudy
4:35 PM 93.2 °F 94.9 °F 64.4 °F 38% 30.05 in 10.0 mi Calm Calm - N/A   Partly Cloudy
4:55 PM 93.2 °F 94.9 °F 64.4 °F 38% 30.05 in 10.0 mi SE 3.5 mph - N/A   Partly Cloudy
5:15 PM 93.2 °F 94.9 °F 64.4 °F 38% 30.05 in 10.0 mi Calm Calm - N/A   Clear
5:35 PM 91.4 °F 93.2 °F 64.4 °F 41% 30.05 in 10.0 mi Calm Calm - N/A   Clear
5:55 PM 89.6 °F 92.2 °F 66.2 °F 46% 30.05 in 10.0 mi Calm Calm - N/A   Clear
6:15 PM 89.6 °F 92.2 °F 66.2 °F 46% 30.05 in 10.0 mi Calm Calm - N/A   Clear
6:35 PM 89.6 °F 92.2 °F 66.2 °F 46% 30.05 in 10.0 mi Calm Calm - N/A   Clear
6:55 PM 86.0 °F 89.4 °F 68.0 °F 55% 30.05 in 10.0 mi Calm Calm - N/A   Partly Cloudy
7:15 PM 84.2 °F 88.4 °F 69.8 °F 62% 30.06 in 10.0 mi Calm Calm - N/A   Partly Cloudy
7:35 PM 82.4 °F 86.3 °F 69.8 °F 66% 30.07 in 10.0 mi Calm Calm - N/A   Clear
7:55 PM 82.4 °F 87.2 °F 71.6 °F 70% 30.07 in 10.0 mi Calm Calm - N/A   Clear
8:15 PM 80.6 °F 84.6 °F 71.6 °F 74% 30.07 in 10.0 mi Calm Calm - N/A   Clear
8:35 PM 80.6 °F 84.6 °F 71.6 °F 74% 30.07 in 10.0 mi Calm Calm - N/A   Clear
8:55 PM 78.8 °F - 71.6 °F 78% 30.09 in 10.0 mi Calm Calm - N/A   Clear
9:15 PM 78.8 °F - 71.6 °F 78% 30.10 in 10.0 mi Calm Calm - N/A   Clear
9:35 PM 78.8 °F - 71.6 °F 78% 30.10 in 10.0 mi Calm Calm - N/A   Clear
10:15 PM 77.0 °F - 71.6 °F 83% 30.10 in 10.0 mi Calm Calm - N/A   Clear
10:35 PM 77.0 °F - 71.6 °F 83% 30.09 in 10.0 mi Calm Calm - N/A   Clear
10:55 PM 77.0 °F - 71.6 °F 83% 30.10 in 10.0 mi Calm Calm - N/A   Clear
11:15 PM 77.0 °F - 71.6 °F 83% 30.10 in 10.0 mi Calm Calm - N/A   Clear
11:35 PM 77.0 °F - 71.6 °F 83% 30.10 in 10.0 mi Calm Calm - N/A   Clear
11:55 PM 75.2 °F - 71.6 °F 89% 30.10 in 10.0 mi Calm Calm - N/A   Clear